Location: Gollag?dem
(16.8053°N, 80.8024°E)
Time: 14:23:51
(UTC+00:00)

DELTA 2 R/B (1) - Pass Details

Date: 13 August 2020
Orbit: 791 x 802 km, 39.6° (Epoch: 24 September)

Event Time Altitude Azimuth Distance (km) Brightness Sun altitude
Exits shadow 22:32:20 62° 295° (WNW) 894 3.6 -25.1°
Maximum altitude 22:32:49 65° 323° (NW) 874 3.6 -25.0°
Drops below altitude 10° 22:38:22 10° 45° (NE) 2,366 7.0 -23.8°
Sets 22:40:53 0° 48° (NE) 3,296 8.0 -23.2°
